TimeCAT,TemperatureF,Dew PointF,Humidity,Sea Level PressureIn,VisibilityMPH,Wind Direction,Wind SpeedMPH,Gust SpeedMPH,PrecipitationIn,Events,Conditions,WindDirDegrees,DateUTC
2:00 AM,66,44,34,,6,ESE,13.8,,,,Partly Cloudy,110,2013-05-14 00:00:00
2:00 AM,66.2,44.6,46,30.21,-9999.0,ESE,13.8,-,N/A,,Clear,110,2013-05-14 00:00:00
4:00 AM,62.6,46.4,55,30.21,-9999.0,East,6.9,-,N/A,,Clear,100,2013-05-14 02:00:00
5:00 AM,62.6,48.2,59,30.21,-9999.0,ESE,10.4,-,N/A,,Clear,110,2013-05-14 03:00:00
6:00 AM,60.8,46.4,59,30.21,-9999.0,ESE,10.4,-,N/A,,Clear,110,2013-05-14 04:00:00
7:00 AM,60.8,48.2,63,30.24,-9999.0,East,10.4,-,N/A,,Clear,90,2013-05-14 05:00:00
8:00 AM,62,49,54,,6,East,9.2,,,,Partly Cloudy,100,2013-05-14 06:00:00
8:00 AM,62.6,50.0,63,30.24,-9999.0,East,9.2,-,N/A,,Clear,100,2013-05-14 06:00:00
9:00 AM,68.0,51.8,56,30.27,-9999.0,East,13.8,-,N/A,,Clear,80,2013-05-14 07:00:00
10:00 AM,71.6,51.8,50,30.27,-9999.0,ENE,9.2,-,N/A,,Clear,70,2013-05-14 08:00:00
11:00 AM,77.0,53.6,44,30.27,-9999.0,NE,8.1,-,N/A,,Clear,40,2013-05-14 09:00:00
12:00 PM,80.6,53.6,39,30.24,-9999.0,ENE,6.9,-,N/A,,Clear,70,2013-05-14 10:00:00
1:00 PM,84.2,53.6,35,30.21,-9999.0,ENE,5.8,-,N/A,,Clear,70,2013-05-14 11:00:00
2:00 PM,84.2,53.6,35,30.18,6.2,ESE,4.6,-,N/A,,Partly Cloudy,120,2013-05-14 12:00:00
3:00 PM,84.2,48.2,29,30.12,6.2,Variable,2.3,-,N/A,,Scattered Clouds,0,2013-05-14 13:00:00
4:00 PM,86.0,50.0,29,30.12,-9999.0,Variable,1.2,-,N/A,,Clear,0,2013-05-14 14:00:00
5:00 PM,84.2,51.8,33,30.12,-9999.0,Variable,2.3,-,N/A,,Clear,0,2013-05-14 15:00:00
6:00 PM,80.6,53.6,39,30.12,-9999.0,Variable,1.2,-,N/A,,Clear,0,2013-05-14 16:00:00
7:00 PM,77.0,55.4,47,30.12,-9999.0,Variable,2.3,-,N/A,,Clear,0,2013-05-14 17:00:00
8:00 PM,73.4,51.8,47,30.15,-9999.0,Variable,1.2,-,N/A,,Clear,0,2013-05-14 18:00:00
9:00 PM,71.6,50.0,46,30.15,-9999.0,SE,6.9,-,N/A,,Clear,140,2013-05-14 19:00:00
10:00 PM,68.0,50.0,52,30.15,-9999.0,SE,4.6,-,N/A,,Clear,130,2013-05-14 20:00:00
11:00 PM,64.4,46.4,52,30.15,-9999.0,SSE,6.9,-,N/A,,Clear,150,2013-05-14 21:00:00